Time,TemperatureF,DewpointF,PressureIn,WindDirection,WindDirectionDegrees,WindSpeedMPH,WindSpeedGustMPH,Humidity,HourlyPrecipIn,Conditions,Clouds,dailyrainin,SoftwareType,DateUTC
2013-09-21 00:11:00,68.7,65.3,29.64,NE,45,4.7,-999.0,89,-99.99,,,0.00,Acu-Link.com,2013-09-21 05:11:00,
2013-09-21 00:27:00,68.4,65.0,29.64,NE,45,2.7,-999.0,89,-99.99,,,0.00,Acu-Link.com,2013-09-21 05:27:00,
2013-09-21 00:42:00,67.8,64.1,29.64,NNE,22,6.8,-999.0,88,-99.99,,,0.00,Acu-Link.com,2013-09-21 05:42:00,
2013-09-21 00:57:00,67.6,63.3,29.65,NNE,22,8.3,-999.0,86,-99.99,,,0.00,Acu-Link.com,2013-09-21 05:57:00,
2013-09-21 01:13:00,67.5,62.5,29.64,WNW,292,3.2,-999.0,84,-99.99,,,0.00,Acu-Link.com,2013-09-21 06:13:00,
2013-09-21 01:28:00,66.9,61.9,29.64,NNE,22,3.2,-999.0,84,-99.99,,,0.00,Acu-Link.com,2013-09-21 06:28:00,
2013-09-21 01:43:00,66.6,61.6,29.65,NE,45,5.3,-999.0,84,-99.99,,,0.00,Acu-Link.com,2013-09-21 06:43:00,
2013-09-21 01:58:00,66.2,61.2,29.64,NNE,22,1.7,-999.0,84,-99.99,,,0.00,Acu-Link.com,2013-09-21 06:58:00,
2013-09-21 02:13:00,65.8,61.2,29.65,NNE,22,6.3,-999.0,85,-99.99,,,0.00,Acu-Link.com,2013-09-21 07:13:00,
2013-09-21 02:28:00,65.7,61.1,29.64,NNE,22,2.2,-999.0,85,-99.99,,,0.00,Acu-Link.com,2013-09-21 07:28:00,
2013-09-21 02:44:00,65.3,61.0,29.65,WNW,292,0.0,-999.0,86,-99.99,,,0.00,Acu-Link.com,2013-09-21 07:44:00,
2013-09-21 02:59:00,65.1,60.8,29.65,NNW,337,0.0,-999.0,86,-99.99,,,0.00,Acu-Link.com,2013-09-21 07:59:00,
2013-09-21 03:16:00,64.9,60.9,29.65,North,0,1.1,-999.0,87,-99.99,,,0.00,Acu-Link.com,2013-09-21 08:16:00,
2013-09-21 03:31:00,64.9,61.3,29.65,West,270,4.7,-999.0,88,-99.99,,,0.00,Acu-Link.com,2013-09-21 08:31:00,
2013-09-21 03:47:00,64.8,61.2,29.65,North,0,3.2,-999.0,88,-99.99,,,0.00,Acu-Link.com,2013-09-21 08:47:00,
2013-09-21 04:02:00,64.4,61.1,29.65,NNW,337,0.0,-999.0,89,-99.99,,,0.00,Acu-Link.com,2013-09-21 09:02:00,
2013-09-21 04:17:00,63.9,60.9,29.64,NNE,22,1.1,-999.0,90,-99.99,,,0.00,Acu-Link.com,2013-09-21 09:17:00,
2013-09-21 04:32:00,63.7,60.7,29.64,NE,45,1.7,-999.0,90,-99.99,,,0.00,Acu-Link.com,2013-09-21 09:32:00,
2013-09-21 04:47:00,63.3,60.3,29.64,North,0,3.7,-999.0,90,-99.99,,,0.00,Acu-Link.com,2013-09-21 09:47:00,
2013-09-21 05:02:00,62.6,59.9,29.65,NW,315,0.0,-999.0,91,-99.99,,,0.00,Acu-Link.com,2013-09-21 10:02:00,
2013-09-21 05:18:00,62.6,59.6,29.64,North,0,1.7,-999.0,90,-99.99,,,0.00,Acu-Link.com,2013-09-21 10:18:00,
2013-09-21 05:33:00,62.4,59.4,29.65,NNE,22,2.7,-999.0,90,-99.99,,,0.00,Acu-Link.com,2013-09-21 10:33:00,
2013-09-21 05:48:00,62.2,59.2,29.65,NE,45,2.7,-999.0,90,-99.99,,,0.00,Acu-Link.com,2013-09-21 10:48:00,
2013-09-21 06:04:00,61.9,58.9,29.66,NW,315,0.0,-999.0,90,-99.99,,,0.00,Acu-Link.com,2013-09-21 11:04:00,
2013-09-21 06:19:00,60.8,58.2,29.66,NNE,22,0.0,-999.0,91,-99.99,,,0.00,Acu-Link.com,2013-09-21 11:19:00,
2013-09-21 06:34:00,60.4,57.8,29.67,West,270,0.0,-999.0,91,-99.99,,,0.00,Acu-Link.com,2013-09-21 11:34:00,
2013-09-21 06:49:00,59.9,57.6,29.68,North,0,0.0,-999.0,92,-99.99,,,0.00,Acu-Link.com,2013-09-21 11:49:00,
2013-09-21 07:04:00,59.5,57.2,29.68,NW,315,2.2,-999.0,92,-99.99,,,0.00,Acu-Link.com,2013-09-21 12:04:00,
2013-09-21 07:20:00,59.2,56.9,29.68,NNW,337,0.0,-999.0,92,-99.99,,,0.00,Acu-Link.com,2013-09-21 12:20:00,
2013-09-21 07:35:00,59.5,57.2,29.68,NNW,337,1.7,-999.0,92,-99.99,,,0.00,Acu-Link.com,2013-09-21 12:35:00,
2013-09-21 07:50:00,60.6,57.6,29.68,NW,315,2.2,-999.0,90,-99.99,,,0.00,Acu-Link.com,2013-09-21 12:50:00,
2013-09-21 08:05:00,61.5,57.9,29.68,NNW,337,3.7,-999.0,88,-99.99,,,0.00,Acu-Link.com,2013-09-21 13:05:00,
2013-09-21 08:20:00,64.8,58.8,29.69,NNW,337,3.2,-999.0,81,-99.99,,,0.00,Acu-Link.com,2013-09-21 13:20:00,
2013-09-21 08:35:00,67.6,59.4,29.69,South,180,5.8,-999.0,75,-99.99,,,0.00,Acu-Link.com,2013-09-21 13:35:00,
2013-09-21 08:51:00,66.7,58.1,29.69,NE,45,5.8,-999.0,74,-99.99,,,0.00,Acu-Link.com,2013-09-21 13:51:00,
2013-09-21 09:06:00,67.5,58.1,29.70,NNE,22,4.2,-999.0,72,-99.99,,,0.00,Acu-Link.com,2013-09-21 14:06:00,
2013-09-21 09:21:00,68.9,58.3,29.69,NE,45,8.9,-999.0,69,-99.99,,,0.00,Acu-Link.com,2013-09-21 14:21:00,
2013-09-21 09:37:00,69.4,56.7,29.69,NE,45,5.8,-999.0,64,-99.99,,,0.00,Acu-Link.com,2013-09-21 14:37:00,
2013-09-21 09:52:00,71.4,55.8,29.69,NE,45,4.7,-999.0,58,-99.99,,,0.00,Acu-Link.com,2013-09-21 14:52:00,
2013-09-21 10:07:00,72.0,54.4,29.70,NW,315,2.2,-999.0,54,-99.99,,,0.00,Acu-Link.com,2013-09-21 15:07:00,
2013-09-21 10:22:00,72.5,51.7,29.69,North,0,6.8,-999.0,48,-99.99,,,0.00,Acu-Link.com,2013-09-21 15:22:00,
2013-09-21 10:37:00,73.9,51.8,29.69,North,0,7.3,-999.0,46,-99.99,,,0.00,Acu-Link.com,2013-09-21 15:37:00,
2013-09-21 10:52:00,74.8,51.4,29.69,NNE,22,5.8,-999.0,44,-99.99,,,0.00,Acu-Link.com,2013-09-21 15:52:00,
2013-09-21 11:07:00,75.6,52.1,29.69,North,0,5.8,-999.0,44,-99.99,,,0.00,Acu-Link.com,2013-09-21 16:07:00,
2013-09-21 11:22:00,76.3,50.2,29.70,NNW,337,7.8,-999.0,40,-99.99,,,0.00,Acu-Link.com,2013-09-21 16:22:00,
2013-09-21 11:38:00,77.4,51.2,29.70,NNE,22,7.8,-999.0,40,-99.99,,,0.00,Acu-Link.com,2013-09-21 16:38:00,
2013-09-21 11:53:00,78.1,51.8,29.69,NNE,22,4.7,-999.0,40,-99.99,,,0.00,Acu-Link.com,2013-09-21 16:53:00,
2013-09-21 12:08:00,79.0,49.7,29.68,NNW,337,8.3,-999.0,36,-99.99,,,0.00,Acu-Link.com,2013-09-21 17:08:00,
2013-09-21 12:23:00,79.2,50.7,29.68,NW,315,3.2,-999.0,37,-99.99,,,0.00,Acu-Link.com,2013-09-21 17:23:00,
2013-09-21 12:38:00,80.8,52.1,29.68,NNE,22,9.4,-999.0,37,-99.99,,,0.00,Acu-Link.com,2013-09-21 17:38:00,
2013-09-21 12:54:00,81.0,50.7,29.67,NNW,337,5.8,-999.0,35,-99.99,,,0.00,Acu-Link.com,2013-09-21 17:54:00,
2013-09-21 13:09:00,81.1,49.2,29.66,NNE,22,8.9,-999.0,33,-99.99,,,0.00,Acu-Link.com,2013-09-21 18:09:00,
2013-09-21 13:24:00,82.2,51.0,29.65,NE,45,4.2,-999.0,34,-99.99,,,0.00,Acu-Link.com,2013-09-21 18:24:00,
2013-09-21 13:39:00,81.9,50.7,29.64,NE,45,3.2,-999.0,34,-99.99,,,0.00,Acu-Link.com,2013-09-21 18:39:00,
2013-09-21 13:54:00,83.5,50.5,29.63,ESE,112,6.3,-999.0,32,-99.99,,,0.00,Acu-Link.com,2013-09-21 18:54:00,
2013-09-21 14:09:00,82.6,48.9,29.62,NNE,22,9.9,-999.0,31,-99.99,,,0.00,Acu-Link.com,2013-09-21 19:09:00,
2013-09-21 14:25:00,83.1,48.4,29.61,ENE,67,3.7,-999.0,30,-99.99,,,0.00,Acu-Link.com,2013-09-21 19:25:00,
2013-09-21 14:40:00,84.2,47.5,29.60,NNW,337,5.3,-999.0,28,-99.99,,,0.00,Acu-Link.com,2013-09-21 19:40:00,
2013-09-21 14:55:00,84.2,51.1,29.59,NE,45,2.7,-999.0,32,-99.99,,,0.00,Acu-Link.com,2013-09-21 19:55:00,
2013-09-21 15:11:00,84.0,50.9,29.58,NNW,337,6.8,-999.0,32,-99.99,,,0.00,Acu-Link.com,2013-09-21 20:11:00,
2013-09-21 15:26:00,84.4,52.9,29.58,South,180,2.2,-999.0,34,-99.99,,,0.00,Acu-Link.com,2013-09-21 20:26:00,
2013-09-21 15:41:00,84.7,50.7,29.57,NNW,337,9.4,-999.0,31,-99.99,,,0.00,Acu-Link.com,2013-09-21 20:41:00,
2013-09-21 15:56:00,84.2,50.3,29.56,NNW,337,4.2,-999.0,31,-99.99,,,0.00,Acu-Link.com,2013-09-21 20:56:00,
2013-09-21 16:11:00,83.8,50.8,29.56,NNE,22,7.8,-999.0,32,-99.99,,,0.00,Acu-Link.com,2013-09-21 21:11:00,
2013-09-21 16:26:00,83.5,50.5,29.55,North,0,5.8,-999.0,32,-99.99,,,0.00,Acu-Link.com,2013-09-21 21:26:00,
2013-09-21 16:41:00,83.7,49.8,29.56,NNE,22,5.3,-999.0,31,-99.99,,,0.00,Acu-Link.com,2013-09-21 21:41:00,
2013-09-21 16:56:00,83.7,49.8,29.55,NE,45,6.3,-999.0,31,-99.99,,,0.00,Acu-Link.com,2013-09-21 21:56:00,
2013-09-21 17:12:00,82.9,50.8,29.55,NNE,22,5.8,-999.0,33,-99.99,,,0.00,Acu-Link.com,2013-09-21 22:12:00,
2013-09-21 17:27:00,84.0,50.9,29.56,NNE,22,4.2,-999.0,32,-99.99,,,0.00,Acu-Link.com,2013-09-21 22:27:00,
2013-09-21 17:42:00,83.8,49.0,29.55,NE,45,4.2,-999.0,30,-99.99,,,0.00,Acu-Link.com,2013-09-21 22:42:00,
2013-09-21 17:57:00,82.6,48.0,29.55,SSW,202,0.0,-999.0,30,-99.99,,,0.00,Acu-Link.com,2013-09-21 22:57:00,
2013-09-21 18:12:00,81.7,48.1,29.55,NNE,22,6.3,-999.0,31,-99.99,,,0.00,Acu-Link.com,2013-09-21 23:12:00,
2013-09-21 18:27:00,81.1,50.1,29.55,NNE,22,1.7,-999.0,34,-99.99,,,0.00,Acu-Link.com,2013-09-21 23:27:00,
2013-09-21 18:43:00,80.4,49.4,29.55,NNE,22,4.2,-999.0,34,-99.99,,,0.00,Acu-Link.com,2013-09-21 23:43:00,
2013-09-21 18:58:00,79.7,49.6,29.55,NE,45,0.0,-999.0,35,-99.99,,,0.00,Acu-Link.com,2013-09-21 23:58:00,
2013-09-21 19:13:00,78.1,51.1,29.55,West,270,0.0,-999.0,39,-99.99,,,0.00,Acu-Link.com,2013-09-22 00:13:00,
2013-09-21 19:29:00,76.1,52.0,29.56,WSW,247,0.0,-999.0,43,-99.99,,,0.00,Acu-Link.com,2013-09-22 00:29:00,
2013-09-21 19:44:00,73.8,53.4,29.56,NW,315,0.0,-999.0,49,-99.99,,,0.00,Acu-Link.com,2013-09-22 00:44:00,
2013-09-21 20:00:00,71.8,53.7,29.56,WNW,292,0.0,-999.0,53,-99.99,,,0.00,Acu-Link.com,2013-09-22 01:00:00,
2013-09-21 20:15:00,70.5,55.0,29.57,NW,315,0.0,-999.0,58,-99.99,,,0.00,Acu-Link.com,2013-09-22 01:15:00,
2013-09-21 20:30:00,69.4,54.9,29.57,NNE,22,0.0,-999.0,60,-99.99,,,0.00,Acu-Link.com,2013-09-22 01:30:00,
2013-09-21 20:46:00,68.2,55.1,29.58,NNE,22,0.0,-999.0,63,-99.99,,,0.00,Acu-Link.com,2013-09-22 01:46:00,
2013-09-21 21:01:00,66.7,55.0,29.58,NW,315,0.0,-999.0,66,-99.99,,,0.00,Acu-Link.com,2013-09-22 02:01:00,
2013-09-21 21:16:00,66.4,55.9,29.59,North,0,0.0,-999.0,69,-99.99,,,0.00,Acu-Link.com,2013-09-22 02:16:00,
2013-09-21 21:31:00,65.7,56.0,29.60,NE,45,0.0,-999.0,71,-99.99,,,0.00,Acu-Link.com,2013-09-22 02:31:00,
2013-09-21 21:47:00,65.3,56.0,29.60,NNE,22,0.0,-999.0,72,-99.99,,,0.00,Acu-Link.com,2013-09-22 02:47:00,
2013-09-21 22:02:00,65.1,56.6,29.61,NNE,22,0.0,-999.0,74,-99.99,,,0.00,Acu-Link.com,2013-09-22 03:02:00,
2013-09-21 22:17:00,64.8,57.1,29.61,NNW,337,0.0,-999.0,76,-99.99,,,0.00,Acu-Link.com,2013-09-22 03:17:00,
2013-09-21 22:32:00,63.9,56.5,29.60,North,0,0.0,-999.0,77,-99.99,,,0.00,Acu-Link.com,2013-09-22 03:32:00,
2013-09-21 22:48:00,63.7,57.1,29.60,NNE,22,0.0,-999.0,79,-99.99,,,0.00,Acu-Link.com,2013-09-22 03:48:00,
2013-09-21 23:03:00,63.5,57.6,29.60,NNW,337,0.0,-999.0,81,-99.99,,,0.00,Acu-Link.com,2013-09-22 04:03:00,
2013-09-21 23:18:00,63.0,57.4,29.60,NNE,22,0.0,-999.0,82,-99.99,,,0.00,Acu-Link.com,2013-09-22 04:18:00,
2013-09-21 23:33:00,62.2,57.0,29.60,NW,315,0.0,-999.0,83,-99.99,,,0.00,Acu-Link.com,2013-09-22 04:33:00,
2013-09-21 23:49:00,62.8,57.6,29.60,NNW,337,0.0,-999.0,83,-99.99,,,0.00,Acu-Link.com,2013-09-22 04:49:00,